Content
SEND FEEDBACK

Daily
Averages
Monthly
Summary
French Polynesia

PAPEETE, FRENCH POLYNESIA


Home > Oceania > French Polynesia
Elevation: 7 feet     Latitude: 17 33S     Longitude: 149 36W

WEATHER
 
SELECT A DAY
Number of Records: 216,052;   Date Range: 6/30/96 - 11/24/14
 
SHARE

PRINT THIS DATA

[ ← Previous Day ]
WEATHER ALMANAC - MARCH 4, 2014
[ Next Day → ]
[ °C ]   °F
Weather ElementAverageHighLow
Temperature81.9 °F87.8 °F (11:30 am)76 °F (5:00 am)
Dewpoint70.6 °F73.4 °F (12:00 pm)66.2 °F (2:30 am)
Humidity68 %89 % (9:00 pm)52 % (2:00 pm)
Barometer29.77 in29.81 in (8:00 am)29.74 in (2:30 am)
Wind Speed4.7 mph9.2 mph (8:30 pm)
Weather ElementAverage
Visibility8 mi
Wind DirectionSSE (168.7 °)

Weather ElementTotal
Precipitation---
Cooling Degree Days16.9 (Base 65)
Growing Degree Days31.9 (Base 50)
Averaged from 55 records on March 4, 2014
WEATHER CONDITIONS BREAKOUT
WIND DIRECTION BREAKOUT
WEATHER BY HOUR - MARCH 4, 2014
[ °C ]   °F
Local TimeTemperatureDewpointHumidityBarometerVisibilityWind DirectionWind SpeedGust SpeedPrecipitationEventsConditions
12:30 AM78.8 °F69.8 °F74 %29.77 in6.2 miEast (100°)2.3 mphMostly Cloudy
1:00 AM78.8 °F69.8 °F74 %29.77 in6.2 miCalmMostly Cloudy
1:30 AM77.0 °F68.0 °F74 %29.77 in6.2 miCalmMostly Cloudy
2:00 AM77.0 °F67.0 °F65 %29.77 in12.0 miSouth (170°)4.6 mphScattered Clouds
2:00 AM77.0 °F68.0 °F74 %29.77 in6.2 miSouth (170°)4.6 mphMostly Cloudy
2:30 AM78.8 °F66.2 °F65 %29.74 in6.2 miVariable2.3 mphMostly Cloudy
3:00 AM77.0 °F68.0 °F74 %29.74 in6.2 miSouth (180°)4.6 mphMostly Cloudy
3:30 AM77.0 °F68.0 °F74 %29.74 in6.2 miVariable3.5 mphPartly Cloudy
4:00 AM77.0 °F68.0 °F74 %29.74 in6.2 miCalm
4:30 AM77.0 °F66.2 °F69 %29.74 in6.2 miEast (90°)2.3 mph
5:00 AM76.0 °F67.0 °F67 %29.77 in37.0 miEast (100°)2.3 mphClear
5:00 AM77.0 °F68.0 °F74 %29.74 in6.2 miEast (100°)2.3 mph
5:30 AM77.0 °F68.0 °F74 %29.77 in6.2 miCalm
6:00 AM77.0 °F68.0 °F74 %29.77 in6.2 miEast (80°)3.5 mphMostly Cloudy
6:30 AM77.0 °F69.8 °F78 %29.77 in6.2 miEast (100°)3.5 mphMostly Cloudy
7:00 AM78.8 °F69.8 °F74 %29.77 in6.2 miVariable3.5 mphMostly Cloudy
7:30 AM82.4 °F68.0 °F62 %29.77 in6.2 miVariable2.3 mphMostly Cloudy
8:00 AM84.0 °F70.0 °F54 %29.81 in19.0 miNNE (30°)3.5 mphPartly Cloudy
8:00 AM84.2 °F69.8 °F62 %29.80 in6.2 miNNE (30°)3.5 mphMostly Cloudy
8:30 AM84.2 °F69.8 °F62 %29.80 in6.2 miNorth (360°)3.5 mphMostly Cloudy
9:00 AM86.0 °F71.6 °F62 %29.80 in6.2 miNorth (10°)4.6 mphMostly Cloudy
9:30 AM86.0 °F71.6 °F62 %29.80 in6.2 miNNE (20°)5.8 mphMostly Cloudy
10:00 AM86.0 °F71.6 °F62 %29.80 in6.2 miNorth (360°)5.8 mphMostly Cloudy
10:30 AM86.0 °F71.6 °F62 %29.80 in6.2 miNorth (360°)5.8 mphMostly Cloudy
11:00 AM86.0 °F72.0 °F55 %29.79 in19.0 miNorth6.9 mphScattered Clouds
11:00 AM86.0 °F71.6 °F62 %29.77 in6.2 miNorth (360°)6.9 mphMostly Cloudy
11:30 AM87.8 °F71.6 °F58 %29.80 in6.2 miNorth (10°)5.8 mphMostly Cloudy
12:00 PM87.8 °F73.4 °F62 %29.77 in6.2 miNorth (350°)6.9 mphMostly Cloudy
12:30 PM86.0 °F71.6 °F62 %29.77 in6.2 miNorth (350°)5.8 mphMostly Cloudy
1:00 PM87.8 °F71.6 °F58 %29.77 in6.2 miNNW (330°)4.6 mphMostly Cloudy
1:30 PM87.8 °F71.6 °F58 %29.74 in6.2 miNNW (340°)5.8 mphMostly Cloudy
2:00 PM87.0 °F72.0 °F52 %29.75 in19.0 miNW (320°)5.8 mphScattered Clouds
2:00 PM87.8 °F71.6 °F58 %29.74 in6.2 miNW (320°)5.8 mphMostly Cloudy
2:30 PM86.0 °F71.6 °F62 %29.74 in6.2 miNNW (340°)4.6 mphMostly Cloudy
3:00 PM86.0 °F73.4 °F66 %29.74 in6.2 miWNW (290°)5.8 mphMostly Cloudy
3:30 PM87.8 °F73.4 °F62 %29.74 in6.2 miWest (260°)5.8 mphMostly Cloudy
4:00 PM87.8 °F71.6 °F58 %29.74 in6.2 miWest (260°)4.6 mphScattered Clouds
4:30 PM87.8 °F71.6 °F58 %29.74 in6.2 miWSW (240°)4.6 mphScattered Clouds
5:00 PM86.0 °F71.0 °F52 %29.75 in19.0 miWSW (240°)3.5 mphScattered Clouds
5:00 PM86.0 °F71.6 °F62 %29.74 in6.2 miWSW (240°)3.5 mphScattered Clouds
5:30 PM84.2 °F71.6 °F66 %29.74 in6.2 miVariable2.3 mphScattered Clouds
6:00 PM82.4 °F71.6 °F70 %29.74 in6.2 miNorth (360°)5.8 mphScattered Clouds
6:30 PM82.4 °F71.6 °F70 %29.77 in6.2 miNorth (360°)4.6 mphMostly Cloudy
7:00 PM82.4 °F73.4 °F74 %29.77 in6.2 miNW (310°)3.5 mphMostly Cloudy
7:30 PM80.6 °F73.4 °F79 %29.77 in6.2 miWNW (290°)8.1 mphScattered Clouds
8:00 PM81.0 °F73.0 °F71 %29.81 in9.0 miNW (310°)6.9 mphMostly Cloudy
8:00 PM80.6 °F73.4 °F79 %29.80 in6.2 miNW (310°)6.9 mphScattered Clouds
8:30 PM77.0 °F71.6 °F83 %29.80 in6.2 miENE (70°)9.2 mphScattered Clouds
9:00 PM77.0 °F73.4 °F89 %29.80 in6.2 miEast (80°)8.1 mphMostly Cloudy
9:30 PM77.0 °F73.4 °F89 %29.80 in6.2 miEast (80°)9.2 mphMostly Cloudy
10:00 PM77.0 °F71.6 °F83 %29.80 in6.2 miEast (90°)9.2 mphMostly Cloudy
10:30 PM78.8 °F69.8 °F74 %29.80 in6.2 miEast (90°)8.1 mphMostly Cloudy
11:00 PM79.0 °F71.0 °F70 %29.80 in12.0 miESE (120°)3.5 mphMostly Cloudy
11:00 PM78.8 °F71.6 °F78 %29.80 in6.2 miESE (120°)3.5 mphMostly Cloudy
11:30 PM78.8 °F69.8 °F74 %29.77 in6.2 miSouth (180°)6.9 mphMostly Cloudy
Hourly data recorded from NTAA, located miles away from Papeete, French Polynesia







STORIES FROM OUR PARTNERS